TITAN 3C TRANSTAGE DEB, 20672

Orbit data source: Space-Track

TITAN 3C TRANSTAGE DEB, 20672 is space debris in HEO originally from a launch on Tue, 21 Dec 1965 UTC launched from the Air Force Eastern Test Range (AFETR). Debris objects in space refer to the collection of defunct objects orbiting the Earth. Examples of debris include non-operational satellites, rocket bodies, and fragments generated from explosions, collisions, or faulty payload assembly.

Loading next visibility...
Identifier
20672, 1965-108AD
Orbit
HEO
Last TLE update
1 day ago
Origin
Manufacturer
Unknown
Mission
Spacecraft
Bus & Motor
Unknown
Mass
Unknown
Launch date (UTC)
1965-12-21 (60 years ago)
Launch vehicle
Unknown
Launch site
Air Force Eastern Test Range (AFETR)
Object type
Payload
Rocket body
Debris
Shape & HBR
Unknown
Radar Cross Section
Small (<0.1 m²)

Expand to show TLE details & history

TLE from 1 day ago
0 TITAN 3C TRANSTAGE DEB
1 20672U 65108AD  25182.74636242 -.00000233  00000-0 -17476-3 0  9997
2 20672  27.1905 357.5485 6803087  66.3108   5.3436  2.70051625 38051
Epoch: 2025-07-01T17:54Z
TLE epoch observation values (Epoch: 2025-07-01T17:54:45.713Z)
Latitude
26.6748°
Longitude
-87.7821°
Altitude
1,146.343 km
Speed
9.365 km/s
True Right ascension
06h 43m 46s
True Declination
26° 32' 39"
Sunlit
Object was in daylight at epoch
Visualization orbit readout
Latitude
0.01106°
Longitude
168.22031°
Altitude
2,881.21 km
Speed
8.234 km/s
Apparent Right ascension
01h 24m 45s
Apparent Declination
-19° 26' 08"
Sunlit
Object is in daylight
Visualization observer readout
Local Sidereal Time
16:48:23
Azimuth
80.204° E
Elevation
-42.037°
Doppler factor
1
Orbital elements
Apogee altitude
30,228.821 km
Perigee altitude
586.611 km
Semi-major axis
21,785.853 km
Eccentricity
0.68031
Inclination
27.1905°
RAAN
357.5485°
Arg. of periapsis
66.3108°
True anomaly
Unknown
Mean anomaly
5.3436°
Eccentric anomaly
Unknown
Mean motion
0.67497 °/min
Orbital period
533.36 mins
BSTAR
-0.00017476
Loading maneuver chart data...
Loading SW <> Apogee altitude chart data...

TITAN 3C TRANSTAGE DEB Visibility forecast

Observer location: undefined°, undefined°

Span
Click to sort rows by Start time (UTC) header in descending order
Start Az.
Max El. time (UTC)
Max El. Az.
Max El.
End time (UTC)
End Az.
340 mins2025-07-03 23:22:56.358Z244.828° WSW2025-07-03 23:40:56.358Z190.345° SSW27.018°2025-07-04 05:02:56.358Z172.726° S
|